sat.trackr.live / text

‹ back to catalog

STARLINK-3854

NORAD 52648 · 2022-052BC

PAYLOAD ACTIVE UNKNOWN

§ Identity

Operator
Country
US
Launch date
2022-05-14
Launch site
AFETR
Launch vehicle
Mass (kg)
RCS (m²)

Purposes: comms

External: N2YO · Heavens-Above · Gunter

§ Orbital elements

Epoch: 2026-09-20T01:40:07.292640Z

Period
93.90 min
Inclination
53.1589°
Eccentricity
0.0001299
Mean motion
15.33556305 rev/d
Perigee alt
464.3 km
Apogee alt
466.1 km
Semi-major
6,843.3 km
B*
-7.1229e-7
RAAN
93.9469°
Arg perigee
80.4634°
Mean anomaly
279.6515°
Rev number
24,064

§ Raw data

STARLINK-38541 52648U 22052BC  26263.06952885 -.00000396  00000+0 -71229-6 0  99942 52648  53.1589  93.9469 0001299  80.4634 279.6515 15.33556305240641

JSON: /api/v1/satellites/52648 · /tle

For live sub-satellite position, see the globe view (requires WebGL).

§ Visibility from observer

Set your observer location to see the next 7 days of passes ≥ 10°. The values pass through the URL so the page stays shareable.

No JS? Fill the form by hand. The geolocation button needs JavaScript.